[[{"header":{"parameterUnit":"m.s-1","parameterCategory":2,"la1":30.2991,"la2":30.254,"lo1":-89.0895,"lo2":-89.0444,"dy":0.0017,"dx":0.0017,"nx":28,"ny":28,"refTime":"2023-04-26T15:00:00:Z","depth":"0","parameterNumber":2,"parameterNumberName":"U-component_of_CURRENTS"},"data":[0,0,0,0,0,0,0,0,0,0,0,0,0,0,0,0,0,0,0,0,0,0,0,0,0,0,0,0,0,0,0,0,0,0,0,0,0,0,0,0,0,0,0,0,0,0,0,0,0,0,0,0,0,0,0,0,0,0,0.3263,0.3263,0,0.3238,0.3237,0.3236,0.3234,0.3235,0.3235,0.3236,0.3081,0.3076,0.3071,0,0,0,0,0,0,0,0,0,0,0,0,0,0.3231,0.3231,0.3263,0.3263,0.3263,0.3238,0.3237,0.3236,0.3234,0.3235,0.3235,0.3236,0.3082,0.3077,0.3071,0,0,0,0,0,0,0,0,0,0,0,0,0,0.3224,0.3232,0.3263,0.3263,0.3263,0.3238,0.3237,0.3236,0.3234,0.3235,0.3236,0.3237,0.3084,0.3077,0.307,0.3004,0,0,0.3048,0.3045,0,0,0,0,0,0,0,0,0.3225,0.3225,0.3263,0.3263,0.3263,0.3244,0.3169,0.3154,0.3233,0.3239,0.3236,0.3237,0.3126,0.3115,0.3103,0.2997,0.299,0.3048,0.3043,0.304,0.3038,0,0,0,0,0,0,0,0.3225,0.3226,0.3248,0.3263,0.3263,0.3237,0.3238,0.3166,0.317,0.3239,0.324,0.3245,0.3125,0.311,0.3099,0.2988,0.3048,0.3041,0.3037,0.3034,0.2856,0.2856,0,0,0,0,0,0,0.3242,0.3227,0.3249,0.3248,0.3252,0.3238,0.3238,0.3245,0.3174,0.3167,0.3244,0.3245,0.3122,0.3107,0.3093,0.3042,0.304,0.3033,0.3029,0.2857,0.2856,0.2856,0,0,0,0,0,0,0.3241,0.3244,0.325,0.324,0.324,0.3238,0.3245,0.3244,0.3236,0.318,0.317,0.3239,0.3122,0.3104,0.304,0.3035,0.303,0.3024,0.2857,0.2857,0.2856,0.2919,0,0,0,0,0,0,0.324,0.3244,0.3243,0.3241,0.3241,0.3236,0.3245,0.3243,0.324,0.3241,0.3172,0.3159,0.3122,0.3051,0.3033,0.3025,0.3018,0.2858,0.2857,0.2856,0.2918,0.2921,0.2924,0,0,0,0,0,0.3239,0.3238,0.3244,0.3246,0.3245,0.3236,0.3233,0.3231,0.3239,0.3229,0.3192,0.3161,0.3034,0.3045,0.3023,0.3013,0.2858,0.2857,0.2856,0.2916,0.292,0.2924,0,0,0,0,0,0,0.3209,0.3238,0.3244,0.3248,0.3245,0.3238,0.3231,0.3231,0.3195,0.3193,0.3145,0.3128,0.3075,0.3029,0.3042,0.2961,0.2944,0.2939,0.2997,0.3,0.3003,0.3011,0.3012,0,0,0,0,0,0.3207,0.3222,0.3233,0.3232,0.3236,0.3233,0.3228,0.3227,0.3203,0.3191,0.3145,0.3095,0.3051,0.3017,0.2964,0.2904,0.291,0.2887,0.289,0.2893,0.2885,0.2903,0.2908,0.2853,0.2853,0.2853,0,0,0.3191,0.3212,0.3216,0.3228,0.3227,0.3217,0.3231,0.3225,0.3207,0.3173,0.3123,0.3097,0.3038,0.2989,0.2961,0.2951,0.2918,0.2892,0.2895,0.2885,0.2903,0.2908,0.2913,0.2852,0.2852,0.2852,0,0,0.3177,0.3192,0.3203,0.3199,0.3208,0.3203,0.3205,0.3196,0.3187,0.3139,0.3125,0.3103,0.3008,0.2989,0.2962,0.2942,0.2936,0.2922,0.2935,0.2953,0.2959,0.2963,0.3015,0.3023,0.292,0.292,0.292,0,0.3157,0.3174,0.3197,0.3199,0.3191,0.3199,0.3187,0.3171,0.3138,0.3131,0.3126,0.3053,0.3011,0.2978,0.2981,0.295,0.297,0.2932,0.2961,0.2965,0.2969,0.302,0.3029,0.2923,0.2923,0.2923,0.2922,0,0.3151,0.3154,0.3156,0.3166,0.3155,0.3145,0.3137,0.3123,0.3116,0.3106,0.3079,0.3045,0.3011,0.3,0.2978,0.2982,0.2995,0.2972,0.2961,0.2979,0.3031,0.3039,0.2927,0.2926,0.2926,0.2925,0,0,0.3125,0.3152,0.3148,0.3146,0.3138,0.3127,0.3104,0.3092,0.309,0.3065,0.3063,0.3018,0.3032,0.3004,0.2994,0.3005,0.3069,0.3001,0.3001,0.3069,0.3141,0.3228,0.3245,0.3058,0.3058,0.3059,0.3182,0,0.3109,0.3111,0.3126,0.3098,0.309,0.3091,0.3069,0.3055,0.3052,0.3047,0.3046,0.3028,0.3024,0.3024,0.304,0.3053,0.3086,0.3039,0.3097,0.3099,0.3188,0.3255,0.3303,0.3423,0.319,0.3191,0.3192,0,0.3084,0.3095,0.3078,0.3075,0.3074,0.3055,0.3041,0.3027,0.3031,0.3034,0.3043,0.3043,0.3062,0.3053,0.3111,0.3085,0.3118,0.3135,0.314,0.3198,0.32,0.3356,0.3446,0.3445,0.3204,0.3203,0.3202,0,0.3036,0.3048,0.3038,0.303,0.3032,0.3026,0.3025,0.3021,0.3021,0.3035,0.3045,0.3068,0.3084,0.3123,0.3173,0.3144,0.325,0.3214,0.3329,0.3337,0.3375,0.3385,0.348,0.3261,0.326,0.326,0.326,0,0.2993,0.2973,0.302,0.3004,0.2992,0.3004,0.2991,0.2998,0.3019,0.3023,0.3044,0.3061,0.3099,0.316,0.32,0.3318,0.3283,0.3356,0.3377,0.3402,0.3413,0.3408,0.3274,0.3265,0.3264,0.3263,0.3262,0,0.2904,0.294,0.2928,0.2957,0.2963,0.2949,0.2966,0.2961,0.2998,0.301,0.3018,0.307,0.3164,0.3231,0.331,0.3367,0.34,0.3496,0.3547,0.3573,0.368,0.3544,0.3452,0.3331,0.3653,0.3656,0.3659,0,0.2843,0.284,0.2881,0.2878,0.2886,0.2886,0.2879,0.2929,0.2935,0.3014,0.3016,0.3119,0.3184,0.3377,0.3501,0.3644,0.3493,0.3765,0.3711,0.3724,0.3587,0.3394,0.328,0.38,0.3803,0.3806,0.3808,0,0.2733,0.2766,0.277,0.2784,0.2787,0.2788,0.2799,0.2816,0.2883,0.292,0.2997,0.3071,0.3296,0.3482,0.3696,0.3778,0.3643,0.3829,0.3813,0.3693,0.351,0.3393,0.3695,0.3833,0.3831,0.3829,0.3828,0.3827,0.264,0.2635,0.267,0.2668,0.268,0.2685,0.2669,0.2717,0.2755,0.2818,0.2941,0.3059,0.3419,0.3735,0.3858,0.4095,0.3792,0.4069,0.3905,0.3716,0.3578,0.3962,0.4134,0.4133,0.4133,0.4132,0.4132,0,0.2524,0.2548,0.2545,0.2555,0.2537,0.2582,0.26,0.2587,0.2623,0.2756,0.2843,0.3194,0.3522,0.3849,0.4246,0.4233,0.4037,0.4101,0.3839,0.3716,0.4105,0.4101,0.4307,0.4307,0.4307,0.4307,0.4307,0.4307,0.2467,0.2445,0.2461,0.2414,0.2421,0.2385,0.2389,0.2404,0.2485,0.2623,0.2799,0.2993,0.3549,0.4092,0.4389,0.4306,0.3941,0.3795,0.3595,0.3925,0.391,0.3895,0.3873,0.4028,0.4027,0.3238,0.3231,0.3226]},{"header":{"parameterUnit":"m.s-1","parameterCategory":2,"la1":30.2991,"la2":30.254,"lo1":-89.0895,"lo2":-89.0444,"dy":0.0017,"dx":0.0017,"nx":28,"ny":28,"refTime":"2023-04-26T15:00:00:Z","depth":"0","parameterNumber":3,"parameterNumberName":"V-component_of_CURRENTS"},"data":[0,0,0,0,0,0,0,0,0,0,0,0,0,0,0,0,0,0,0,0,0,0,0,0,0,0,0,0,0,0,0,0,0,0,0,0,0,0,0,0,0,0,0,0,0,0,0,0,0,0,0,0,0,0,0,0,0,0,-0.2125,-0.2124,0,-0.2074,-0.2074,-0.2073,-0.2088,-0.2089,-0.209,-0.2091,-0.2143,-0.2143,-0.2144,0,0,0,0,0,0,0,0,0,0,0,0,0,-0.2138,-0.2138,-0.2125,-0.2124,-0.2124,-0.2074,-0.2074,-0.2073,-0.2088,-0.2089,-0.209,-0.2091,-0.2143,-0.2143,-0.2144,0,0,0,0,0,0,0,0,0,0,0,0,0,-0.2115,-0.2138,-0.2125,-0.2125,-0.2124,-0.2074,-0.2074,-0.2073,-0.2088,-0.2089,-0.2091,-0.2092,-0.2142,-0.2143,-0.2144,-0.2118,0,0,-0.2146,-0.2146,0,0,0,0,0,0,0,0,-0.2117,-0.2115,-0.2125,-0.2125,-0.2124,-0.2088,-0.2097,-0.2093,-0.2087,-0.2102,-0.2091,-0.2093,-0.2133,-0.2134,-0.2121,-0.212,-0.2123,-0.2146,-0.2146,-0.2147,-0.2147,0,0,0,0,0,0,0,-0.2118,-0.2116,-0.2105,-0.2124,-0.2123,-0.2094,-0.2093,-0.2096,-0.2112,-0.2101,-0.2102,-0.2095,-0.2133,-0.212,-0.2122,-0.2123,-0.2146,-0.2146,-0.2147,-0.2147,-0.215,-0.2149,0,0,0,0,0,0,-0.2127,-0.2118,-0.2107,-0.2104,-0.2123,-0.2093,-0.2092,-0.2099,-0.211,-0.2112,-0.2093,-0.2095,-0.2118,-0.2121,-0.2124,-0.2107,-0.2147,-0.2147,-0.2148,-0.215,-0.2149,-0.2149,0,0,0,0,0,0,-0.2127,-0.2127,-0.2109,-0.2109,-0.2104,-0.2092,-0.2099,-0.2097,-0.2091,-0.2103,-0.2107,-0.2091,-0.2119,-0.2123,-0.2111,-0.2109,-0.2147,-0.2148,-0.215,-0.215,-0.2149,-0.2064,0,0,0,0,0,0,-0.2128,-0.2128,-0.2127,-0.211,-0.2105,-0.2072,-0.2097,-0.2095,-0.2084,-0.2086,-0.2102,-0.2107,-0.2121,-0.211,-0.2112,-0.2111,-0.2149,-0.2151,-0.215,-0.2149,-0.2068,-0.2061,-0.2055,0,0,0,0,0,-0.2129,-0.2118,-0.2128,-0.2125,-0.2108,-0.2071,-0.2064,-0.206,-0.2082,-0.2065,-0.2072,-0.2107,-0.2109,-0.2108,-0.2111,-0.211,-0.2151,-0.215,-0.2149,-0.207,-0.2062,-0.2056,0,0,0,0,0,0,-0.2115,-0.2118,-0.2128,-0.2118,-0.2095,-0.2073,-0.2053,-0.2059,-0.2048,-0.2057,-0.2082,-0.2085,-0.2078,-0.2104,-0.2104,-0.2113,-0.2145,-0.2144,-0.2084,-0.2077,-0.2071,-0.2059,-0.2149,0,0,0,0,0,-0.2114,-0.2112,-0.2102,-0.209,-0.2081,-0.2071,-0.2055,-0.2053,-0.2043,-0.204,-0.2049,-0.2067,-0.2073,-0.2082,-0.2086,-0.208,-0.2103,-0.2091,-0.2085,-0.2079,-0.2073,-0.2104,-0.21,-0.2147,-0.2147,-0.2147,0,0,-0.2103,-0.2104,-0.2101,-0.2087,-0.2073,-0.2039,-0.2065,-0.2037,-0.2012,-0.2048,-0.202,-0.2036,-0.2065,-0.2052,-0.2056,-0.2077,-0.2073,-0.2078,-0.2073,-0.207,-0.2103,-0.2098,-0.2094,-0.2146,-0.2146,-0.2146,0,0,-0.2064,-0.2083,-0.2062,-0.204,-0.2017,-0.2012,-0.2006,-0.1985,-0.1982,-0.1953,-0.1979,-0.1986,-0.1993,-0.2006,-0.2019,-0.1985,-0.2033,-0.2006,-0.197,-0.1999,-0.1995,-0.1992,-0.199,-0.1987,-0.2012,-0.2011,-0.2011,0,-0.2049,-0.2027,-0.2043,-0.2006,-0.1981,-0.2001,-0.1956,-0.1949,-0.1925,-0.1923,-0.1938,-0.1948,-0.197,-0.1967,-0.1956,-0.197,-0.1988,-0.199,-0.199,-0.1988,-0.1986,-0.1984,-0.1983,-0.2007,-0.2008,-0.2008,-0.2008,0,-0.1983,-0.1964,-0.1944,-0.1918,-0.1892,-0.1856,-0.1851,-0.184,-0.1853,-0.1853,-0.1848,-0.1865,-0.1882,-0.1894,-0.1911,-0.1917,-0.193,-0.1969,-0.2003,-0.1976,-0.1976,-0.1976,-0.2001,-0.2003,-0.2004,-0.2005,0,0,-0.1948,-0.191,-0.1901,-0.1873,-0.1844,-0.1814,-0.1788,-0.1768,-0.1759,-0.1762,-0.1747,-0.1763,-0.1796,-0.1812,-0.1845,-0.1869,-0.1861,-0.1911,-0.1915,-0.1898,-0.1904,-0.186,-0.1856,-0.1906,-0.1906,-0.1906,-0.1899,0,-0.1887,-0.1813,-0.181,-0.1735,-0.1693,-0.1706,-0.1673,-0.1664,-0.1678,-0.1671,-0.1716,-0.1712,-0.1761,-0.1767,-0.1799,-0.1844,-0.1862,-0.1858,-0.1943,-0.1945,-0.1901,-0.1855,-0.1761,-0.1744,-0.1899,-0.1899,-0.1899,0,-0.1806,-0.1773,-0.1692,-0.1645,-0.1629,-0.1591,-0.1563,-0.1542,-0.1559,-0.1569,-0.1599,-0.1637,-0.1662,-0.1713,-0.178,-0.1778,-0.1833,-0.1871,-0.1873,-0.1863,-0.19,-0.1804,-0.1738,-0.1841,-0.1899,-0.1899,-0.1899,0,-0.1744,-0.1683,-0.1623,-0.16,-0.1553,-0.1526,-0.1512,-0.1509,-0.1487,-0.1513,-0.1501,-0.156,-0.157,-0.1656,-0.1735,-0.1765,-0.1801,-0.1861,-0.1867,-0.1864,-0.1815,-0.1808,-0.1851,-0.1909,-0.1909,-0.1909,-0.1909,0,-0.1664,-0.1607,-0.1592,-0.1549,-0.1478,-0.147,-0.1408,-0.1412,-0.1405,-0.1363,-0.1449,-0.142,-0.156,-0.1602,-0.1699,-0.1758,-0.1779,-0.1838,-0.1857,-0.178,-0.177,-0.1885,-0.1996,-0.1909,-0.1909,-0.1909,-0.1909,0,-0.157,-0.1565,-0.1492,-0.1455,-0.1437,-0.1385,-0.1331,-0.1292,-0.1304,-0.1253,-0.1253,-0.131,-0.1353,-0.1473,-0.1589,-0.1685,-0.1817,-0.1786,-0.1663,-0.1668,-0.178,-0.189,-0.2003,-0.2069,-0.1794,-0.1793,-0.1792,0,-0.1504,-0.1461,-0.1417,-0.1375,-0.1349,-0.1285,-0.1231,-0.1232,-0.1188,-0.1165,-0.1125,-0.1162,-0.1147,-0.129,-0.1442,-0.1575,-0.1749,-0.1619,-0.1668,-0.175,-0.1889,-0.199,-0.2046,-0.1563,-0.156,-0.1558,-0.1556,0,-0.1381,-0.1381,-0.1333,-0.1255,-0.1197,-0.1124,-0.1056,-0.101,-0.0997,-0.0939,-0.0867,-0.0857,-0.098,-0.1055,-0.1258,-0.1377,-0.1693,-0.1578,-0.1703,-0.1735,-0.1809,-0.1891,-0.1595,-0.1536,-0.1538,-0.154,-0.1541,-0.1541,-0.1285,-0.1238,-0.1194,-0.1107,-0.105,-0.0957,-0.0863,-0.0797,-0.0694,-0.0566,-0.0618,-0.0498,-0.0688,-0.0929,-0.1163,-0.1455,-0.1553,-0.1541,-0.1671,-0.1767,-0.1824,-0.1462,-0.1409,-0.141,-0.1411,-0.1412,-0.1413,0,-0.1147,-0.1113,-0.104,-0.0939,-0.0842,-0.0847,-0.073,-0.062,-0.0459,-0.0326,-0.0223,-0.0144,-0.038,-0.0709,-0.1105,-0.1438,-0.164,-0.1644,-0.1771,-0.1831,-0.1513,-0.1494,-0.1405,-0.1405,-0.1405,-0.1405,-0.1404,-0.1404,-0.1068,-0.0973,-0.0943,-0.0757,-0.0688,-0.053,-0.0448,-0.0309,-0.0179,0.0082,0.0257,0.0324,0.0226,-0.0637,-0.132,-0.1566,-0.1876,-0.1946,-0.2141,-0.1916,-0.1917,-0.1917,-0.1922,-0.1923,-0.1924,-0.2366,-0.2371,-0.2374]}],[{"header":{"parameterUnit":"m.s-1","parameterCategory":2,"la1":30.2991,"la2":30.254,"lo1":-89.0895,"lo2":-89.0444,"dy":0.0017,"dx":0.0017,"nx":28,"ny":28,"refTime":"2023-04-26T15:00:00:Z","depth":"2","parameterNumber":2,"parameterNumberName":"U-component_of_CURRENTS"},"data":[0,0,0,0,0,0,0,0,0,0,0,0,0,0,0,0,0,0,0,0,0,0,0,0,0,0,0,0,0,0,0,0,0,0,0,0,0,0,0,0,0,0,0,0,0,0,0,0,0,0,0,0,0,0,0,0,0,0,0.2327,0.2327,0,0.2339,0.2339,0.2338,0.2314,0.2314,0.2314,0.2314,0.2251,0.2249,0.2248,0,0,0,0,0,0,0,0,0,0,0,0,0,0.22,0.2203,0.2326,0.2327,0.2328,0.2339,0.2338,0.2338,0.2314,0.2314,0.2314,0.2314,0.2251,0.225,0.2248,0,0,0,0,0,0,0,0,0,0,0,0,0,0.2232,0.2204,0.2326,0.2323,0.2323,0.2339,0.2338,0.2338,0.2314,0.2314,0.2314,0.2314,0.2252,0.225,0.2247,0.2236,0,0,0.224,0.2239,0,0,0,0,0,0,0,0,0.223,0.2235,0.2323,0.2323,0.2324,0.2331,0.2271,0.2303,0.2314,0.231,0.2314,0.2314,0.2276,0.2271,0.2265,0.2233,0.2231,0.224,0.2239,0.2238,0.2237,0,0,0,0,0,0,0,0.2228,0.2234,0.2324,0.2324,0.2325,0.2294,0.2298,0.2276,0.2287,0.231,0.2311,0.2324,0.2274,0.2267,0.2263,0.223,0.224,0.2238,0.2237,0.2236,0.2211,0.2212,0,0,0,0,0,0,0.2246,0.2233,0.2324,0.2325,0.2284,0.2297,0.2301,0.2323,0.2288,0.2286,0.2324,0.2323,0.2271,0.2266,0.2261,0.2276,0.2238,0.2235,0.2234,0.221,0.2211,0.2212,0,0,0,0,0,0,0.2243,0.2254,0.2323,0.2284,0.2292,0.2301,0.2325,0.2324,0.2328,0.2301,0.2295,0.2332,0.2271,0.2264,0.2261,0.2272,0.2234,0.2232,0.2209,0.221,0.2212,0.2286,0,0,0,0,0,0,0.224,0.2253,0.2274,0.2286,0.2295,0.2341,0.2326,0.2324,0.234,0.2338,0.2306,0.2299,0.227,0.2265,0.2258,0.2268,0.223,0.2208,0.221,0.2211,0.2282,0.2289,0.2295,0,0,0,0,0,0.2235,0.226,0.2275,0.2286,0.2324,0.2342,0.2343,0.2342,0.2341,0.2344,0.2331,0.2301,0.2269,0.2264,0.2256,0.2265,0.2208,0.2209,0.2211,0.2279,0.2288,0.2295,0,0,0,0,0,0,0.2208,0.2261,0.2277,0.2316,0.2336,0.2341,0.2348,0.2353,0.2346,0.2348,0.2314,0.2306,0.2309,0.2278,0.2273,0.2262,0.2232,0.2232,0.2286,0.2294,0.23,0.2291,0.2228,0,0,0,0,0,0.2218,0.2251,0.2291,0.2318,0.2334,0.2345,0.2354,0.2362,0.2362,0.2359,0.2341,0.2321,0.2308,0.2296,0.2279,0.2272,0.2269,0.2271,0.2278,0.2283,0.2271,0.2291,0.2298,0.2218,0.2218,0.2218,0,0,0.2212,0.2248,0.2264,0.2315,0.2328,0.2344,0.2348,0.2372,0.2377,0.2353,0.235,0.2347,0.2314,0.2312,0.2308,0.2287,0.2313,0.2285,0.2291,0.2275,0.2293,0.2301,0.2308,0.2219,0.2219,0.2218,0,0,0.2207,0.2253,0.2276,0.2301,0.2345,0.2353,0.2367,0.239,0.2392,0.2403,0.2389,0.2395,0.2369,0.235,0.2335,0.2364,0.2353,0.2364,0.238,0.2401,0.2407,0.2413,0.2458,0.2467,0.2359,0.2359,0.2359,0,0.2196,0.224,0.2281,0.2308,0.2326,0.2359,0.2375,0.2383,0.24,0.2406,0.2409,0.2401,0.2381,0.2372,0.2386,0.2377,0.24,0.2356,0.241,0.2416,0.242,0.2464,0.2473,0.2363,0.2363,0.2362,0.2362,0,0.2209,0.2245,0.2259,0.2305,0.2327,0.2351,0.238,0.2399,0.2416,0.2425,0.2443,0.2434,0.2427,0.2429,0.2414,0.2436,0.2449,0.2426,0.2394,0.2433,0.2477,0.2485,0.2368,0.2367,0.2366,0.2365,0,0,0.2181,0.2253,0.2259,0.2279,0.2333,0.2348,0.2371,0.2396,0.2413,0.2437,0.2452,0.2449,0.2468,0.2452,0.245,0.2462,0.2533,0.2464,0.2464,0.2514,0.2612,0.268,0.2696,0.2533,0.2534,0.2534,0.2643,0,0.2176,0.2219,0.2258,0.2283,0.2306,0.2347,0.2362,0.2393,0.2419,0.2444,0.2456,0.2472,0.2469,0.2487,0.2502,0.2524,0.2552,0.2507,0.2559,0.256,0.2621,0.2706,0.2398,0.2475,0.2651,0.2652,0.2653,0,0.218,0.2209,0.2239,0.2283,0.2297,0.2317,0.2359,0.2381,0.2426,0.2449,0.2481,0.2499,0.2532,0.2522,0.2586,0.2567,0.2595,0.2609,0.2613,0.2648,0.2643,0.2455,0.2482,0.2667,0.2665,0.2665,0.2664,0,0.2143,0.2194,0.2214,0.2232,0.2288,0.2308,0.2339,0.2387,0.2405,0.2465,0.249,0.2534,0.2568,0.2605,0.2663,0.2632,0.2743,0.2696,0.2782,0.2788,0.2518,0.25,0.2735,0.2735,0.2735,0.2735,0.2734,0,0.213,0.2143,0.2203,0.2217,0.2236,0.2293,0.2323,0.236,0.2415,0.2436,0.2498,0.2526,0.2592,0.2663,0.2695,0.2798,0.2778,0.2809,0.2825,0.2543,0.2526,0.2665,0.2655,0.2739,0.2738,0.2737,0.2736,0,0.2086,0.2129,0.2148,0.2206,0.2223,0.2242,0.2304,0.2323,0.2394,0.2429,0.2452,0.254,0.2653,0.2737,0.282,0.2853,0.2926,0.2958,0.2653,0.2634,0.2945,0.2938,0.306,0.3063,0.3066,0.3069,0.3071,0,0.2063,0.2075,0.2124,0.2134,0.2161,0.2202,0.2224,0.2299,0.2321,0.2427,0.2433,0.2571,0.264,0.2838,0.2886,0.2995,0.3029,0.2823,0.2704,0.2977,0.2981,0.2969,0.2958,0.2372,0.2368,0.2365,0.2362,0,0.2012,0.2035,0.2055,0.2074,0.2097,0.2119,0.2164,0.2171,0.2262,0.231,0.2386,0.246,0.2633,0.2616,0.2808,0.2825,0.2788,0.2773,0.3102,0.2376,0.2348,0.2346,0.2353,0.2334,0.2337,0.2339,0.2341,0.2342,0.1964,0.196,0.199,0.2003,0.2023,0.2027,0.2024,0.2075,0.2111,0.2131,0.2263,0.2272,0.2323,0.2441,0.2493,0.2562,0.2725,0.261,0.2609,0.2614,0.2554,0.2537,0.2548,0.2551,0.2555,0.2558,0.256,0,0.1886,0.1901,0.1912,0.1916,0.1901,0.1955,0.1968,0.1932,0.1946,0.1974,0.2027,0.1837,0.1904,0.2009,0.2043,0.2184,0.2069,0.2158,0.1907,0.1937,0.1963,0.186,0.1674,0.1672,0.167,0.1668,0,0,0.1846,0.1827,0.1838,0.1798,0.1808,0.177,0.1768,0.1723,0.1714,0.1585,0.1533,0.1668,0.1815,0.1609,0.1698,0.168,0.1785,0.1649,0.2341,0.2062,0.2084,0.2202,0.2078,0,0,0,0,0]},{"header":{"parameterUnit":"m.s-1","parameterCategory":2,"la1":30.2991,"la2":30.254,"lo1":-89.0895,"lo2":-89.0444,"dy":0.0017,"dx":0.0017,"nx":28,"ny":28,"refTime":"2023-04-26T15:00:00:Z","depth":"2","parameterNumber":3,"parameterNumberName":"V-component_of_CURRENTS"},"data":[0,0,0,0,0,0,0,0,0,0,0,0,0,0,0,0,0,0,0,0,0,0,0,0,0,0,0,0,0,0,0,0,0,0,0,0,0,0,0,0,0,0,0,0,0,0,0,0,0,0,0,0,0,0,0,0,0,0,0.0302,0.0301,0,0.0143,0.0141,0.0139,0.0024,0.0023,0.0022,0.0021,-0.0222,-0.0227,-0.0233,0,0,0,0,0,0,0,0,0,0,0,0,0,0.0436,0.0435,0.0302,0.0301,0.0299,0.0143,0.0141,0.0139,0.0024,0.0023,0.0022,0.0021,-0.022,-0.0226,-0.0233,0,0,0,0,0,0,0,0,0,0,0,0,0,0.0337,0.0434,0.0303,0.0224,0.0215,0.0144,0.0141,0.0138,0.0024,0.0023,0.0022,0.002,-0.0217,-0.0226,-0.0234,-0.0262,0,0,-0.026,-0.0264,0,0,0,0,0,0,0,0,0.0342,0.0332,0.0237,0.0229,0.0219,0.0103,0.0099,0.0001,0.0024,0.0095,0.0021,0.002,-0.0119,-0.0135,-0.0164,-0.0273,-0.0284,-0.0261,-0.0266,-0.027,-0.0272,0,0,0,0,0,0,0,0.035,0.0337,0.0238,0.0235,0.0225,0.0172,0.0157,0.008,-0.0006,0.0089,0.008,0.0065,-0.0125,-0.0155,-0.017,-0.0287,-0.0261,-0.0268,-0.0274,-0.0277,-0.0515,-0.0516,0,0,0,0,0,0,0.0377,0.0344,0.0243,0.0233,0.0281,0.0171,0.0154,0.0141,-0.0003,-0.0025,0.0067,0.0061,-0.014,-0.016,-0.0179,-0.029,-0.027,-0.0278,-0.0283,-0.0513,-0.0515,-0.0516,0,0,0,0,0,0,0.0381,0.037,0.0249,0.0286,0.0267,0.0171,0.0156,0.0138,0.0073,-0.0019,-0.0043,0.0016,-0.0142,-0.0167,-0.0268,-0.0298,-0.0282,-0.0289,-0.0512,-0.0514,-0.0516,-0.0467,0,0,0,0,0,0,0.0385,0.0372,0.0353,0.0288,0.0266,0.0191,0.0157,0.0136,0.0069,0.0058,-0.0069,-0.0091,-0.0145,-0.0255,-0.0276,-0.0309,-0.0296,-0.0511,-0.0513,-0.0515,-0.0467,-0.0467,-0.0467,0,0,0,0,0,0.0391,0.0371,0.0354,0.034,0.025,0.019,0.0173,0.01,0.0067,0.0036,-0.0045,-0.0089,-0.0284,-0.0262,-0.0288,-0.0324,-0.0509,-0.0512,-0.0515,-0.0467,-0.0467,-0.0467,0,0,0,0,0,0,0.0399,0.0356,0.0335,0.0297,0.0244,0.0171,0.0127,0.0087,-0.0002,-0.0026,-0.0107,-0.0134,-0.0231,-0.0285,-0.0258,-0.0399,-0.0404,-0.0412,-0.0359,-0.036,-0.036,-0.0335,-0.0303,0,0,0,0,0,0.0402,0.0382,0.0329,0.0293,0.0268,0.0195,0.0154,0.0108,0.0033,-0.001,-0.0094,-0.0183,-0.0255,-0.0313,-0.0386,-0.0469,-0.0498,-0.0509,-0.0509,-0.0508,-0.0505,-0.0557,-0.0561,-0.0525,-0.0525,-0.0525,0,0,0.0394,0.0366,0.0351,0.0294,0.0243,0.0205,0.0165,0.0097,0.0057,-0.0022,-0.0121,-0.019,-0.0276,-0.036,-0.0409,-0.0416,-0.0534,-0.0511,-0.051,-0.0508,-0.056,-0.0564,-0.0566,-0.0527,-0.0527,-0.0526,0,0,0.0375,0.0343,0.0322,0.0288,0.022,0.0183,0.0163,0.0079,0.0028,-0.006,-0.0118,-0.0198,-0.0331,-0.0383,-0.0427,-0.0473,-0.0525,-0.0512,-0.0503,-0.0554,-0.0556,-0.0559,-0.0594,-0.0601,-0.0519,-0.0519,-0.0519,0,0.0356,0.0336,0.0301,0.0273,0.0243,0.0178,0.0146,0.0092,-0.0018,-0.0055,-0.0091,-0.0258,-0.0334,-0.0411,-0.0431,-0.0472,-0.0507,-0.0492,-0.055,-0.0554,-0.0558,-0.0593,-0.0601,-0.0517,-0.0517,-0.0517,-0.0517,0,0.0335,0.0309,0.0288,0.0247,0.0211,0.0167,0.0112,0.0055,-0.001,-0.0062,-0.0163,-0.0256,-0.0353,-0.039,-0.0433,-0.0499,-0.0517,-0.0534,-0.0541,-0.0558,-0.0595,-0.0604,-0.0514,-0.0515,-0.0515,-0.0516,0,0,0.0305,0.0281,0.0268,0.0261,0.0196,0.0167,0.011,0.0047,0.001,-0.0094,-0.0146,-0.027,-0.0322,-0.0373,-0.0436,-0.0484,-0.0541,-0.0525,-0.0529,-0.0542,-0.065,-0.0565,-0.0566,-0.0572,-0.0574,-0.0575,-0.0663,0,0.0286,0.0265,0.0247,0.0212,0.0198,0.0147,0.011,0.0047,-0.0021,-0.0086,-0.0173,-0.0257,-0.0314,-0.0369,-0.0424,-0.0506,-0.0563,-0.0515,-0.0649,-0.0652,-0.0559,-0.0573,-0.0532,-0.0598,-0.0672,-0.0673,-0.0674,0,0.0265,0.026,0.0236,0.0224,0.0209,0.0171,0.0114,0.0071,-0.0013,-0.0067,-0.0153,-0.0224,-0.0317,-0.0362,-0.0505,-0.0476,-0.0569,-0.0627,-0.0632,-0.0573,-0.0582,-0.0598,-0.0612,-0.0689,-0.0688,-0.0687,-0.0686,0,0.028,0.025,0.0241,0.023,0.0199,0.0165,0.0132,0.0059,0.0032,-0.0067,-0.0096,-0.0212,-0.0277,-0.0395,-0.0516,-0.0532,-0.0648,-0.0686,-0.0696,-0.0691,-0.069,-0.0681,-0.0798,-0.0798,-0.0798,-0.0798,-0.0798,0,0.0284,0.0271,0.0241,0.0236,0.0216,0.0179,0.0138,0.0091,0.0033,0.0017,-0.0095,-0.0116,-0.0294,-0.0376,-0.0498,-0.0596,-0.0644,-0.0689,-0.0707,-0.0671,-0.0659,-0.0768,-0.0763,-0.0801,-0.08,-0.08,-0.0799,0,0.0306,0.0285,0.0275,0.0239,0.0222,0.02,0.0153,0.014,0.0073,0.0052,0.0022,-0.0067,-0.016,-0.0304,-0.0479,-0.0558,-0.067,-0.0704,-0.0631,-0.0636,-0.0692,-0.0685,-0.0737,-0.0735,-0.0733,-0.0731,-0.073,0,0.0323,0.0318,0.0282,0.0274,0.0246,0.0212,0.0202,0.0149,0.0149,0.0104,0.0117,0.0019,0.0044,-0.0143,-0.0335,-0.0503,-0.0608,-0.0612,-0.0629,-0.0674,-0.0686,-0.0682,-0.0677,-0.0628,-0.0626,-0.0624,-0.0623,0,0.0357,0.0327,0.0328,0.0314,0.0292,0.0295,0.0274,0.0299,0.0265,0.0283,0.0331,0.0362,0.0197,0.0077,-0.0164,-0.0295,-0.0571,-0.0578,-0.0671,-0.0617,-0.0569,-0.0581,-0.0581,-0.0607,-0.0609,-0.061,-0.0611,-0.0611,0.0374,0.038,0.0371,0.0364,0.0354,0.039,0.0421,0.0456,0.0523,0.0616,0.0605,0.0673,0.0437,0.0218,-0.005,-0.0396,-0.0392,-0.0533,-0.0541,-0.055,-0.0488,-0.0436,-0.0439,-0.0439,-0.044,-0.044,-0.044,0,0.0411,0.0409,0.0422,0.0431,0.0467,0.042,0.0487,0.0574,0.0711,0.0816,0.094,0.0808,0.0676,0.0325,-0.0126,-0.0345,-0.0407,-0.0473,-0.0527,-0.0537,-0.0547,-0.049,-0.0439,-0.044,-0.0441,-0.0442,0,0,0.0426,0.0462,0.0483,0.0546,0.0537,0.0597,0.0648,0.0791,0.0892,0.1074,0.1103,0.1233,0.0792,0.0465,0.011,-0.0193,-0.0313,-0.0242,-0.0208,-0.0236,-0.0244,-0.0535,-0.045,0,0,0,0,0]}],[{"header":{"parameterUnit":"m.s-1","parameterCategory":2,"la1":30.2991,"la2":30.254,"lo1":-89.0895,"lo2":-89.0444,"dy":0.0017,"dx":0.0017,"nx":28,"ny":28,"refTime":"2023-04-26T15:00:00:Z","depth":"4","parameterNumber":2,"parameterNumberName":"U-component_of_CURRENTS"},"data":[0,0,0,0,0,0,0,0,0,0,0,0,0,0,0,0,0,0,0,0,0,0,0,0,0,0,0,0,0,0,0,0,0,0,0,0,0,0,0,0,0,0,0,0,0,0,0,0,0,0,0,0,0,0,0,0,0,0,0.02,0.02,0,0.0251,0.0251,0.0252,0.0301,0.0301,0.0302,0.0303,0.0477,0.0481,0.0485,0,0,0,0,0,0,0,0,0,0,0,0,0,0.0147,0.0147,0.02,0.02,0.0201,0.0251,0.0252,0.0252,0.0301,0.0301,0.0302,0.0303,0.0475,0.048,0.0485,0,0,0,0,0,0,0,0,0,0,0,0,0,0.0181,0.0147,0.02,0.0231,0.0235,0.0251,0.0252,0.0252,0.03,0.0301,0.0302,0.0303,0.0474,0.048,0.0486,0.0504,0,0,0.0504,0.0507,0,0,0,0,0,0,0,0,0.0179,0.0183,0.0226,0.0229,0.0233,0.0271,0.0297,0.0343,0.03,0.0275,0.0303,0.0304,0.0419,0.0429,0.0435,0.0512,0.052,0.0505,0.0508,0.0511,0.0513,0,0,0,0,0,0,0,0.0176,0.0181,0.022,0.0227,0.0231,0.0244,0.025,0.0305,0.0343,0.0278,0.0281,0.0287,0.0421,0.0429,0.044,0.0522,0.0505,0.051,0.0514,0.0516,0.0722,0.0724,0,0,0,0,0,0,0.0169,0.0178,0.0218,0.0221,0.0208,0.0244,0.0251,0.0257,0.034,0.0353,0.0286,0.0289,0.0418,0.0432,0.0446,0.0592,0.0511,0.0517,0.052,0.072,0.0722,0.0724,0,0,0,0,0,0,0.0168,0.0172,0.0216,0.0201,0.0208,0.0244,0.0251,0.0258,0.0298,0.0345,0.036,0.0322,0.0419,0.0438,0.051,0.0595,0.0519,0.0525,0.0718,0.0721,0.0723,0.0808,0,0,0,0,0,0,0.0166,0.0171,0.0185,0.0201,0.0208,0.025,0.0251,0.0258,0.0298,0.0303,0.0381,0.0396,0.0421,0.0501,0.0516,0.0602,0.053,0.0716,0.0719,0.0722,0.0803,0.0814,0.0823,0,0,0,0,0,0.0164,0.0177,0.0185,0.0191,0.0222,0.0251,0.0257,0.0285,0.0299,0.0323,0.0365,0.0395,0.0534,0.0506,0.0524,0.0614,0.0714,0.0718,0.0722,0.0799,0.0812,0.0822,0,0,0,0,0,0,0.0169,0.0184,0.0193,0.0213,0.0241,0.026,0.0286,0.0302,0.0352,0.0373,0.0409,0.0427,0.0523,0.0544,0.0512,0.0679,0.0634,0.0642,0.0687,0.0699,0.0709,0.0734,0.0535,0,0,0,0,0,0.0172,0.0185,0.0206,0.0227,0.0243,0.027,0.029,0.0315,0.0353,0.0376,0.0437,0.0496,0.0548,0.0602,0.0647,0.074,0.0737,0.081,0.0819,0.0828,0.0858,0.0876,0.089,0.0738,0.0738,0.0738,0,0,0.0181,0.0191,0.02,0.0229,0.0254,0.0304,0.0286,0.0334,0.0392,0.0391,0.0503,0.0532,0.0572,0.0669,0.0719,0.0708,0.087,0.0833,0.084,0.0867,0.0882,0.0897,0.091,0.0741,0.074,0.074,0,0,0.0205,0.0216,0.0239,0.027,0.0315,0.0342,0.0364,0.0417,0.0457,0.0554,0.0558,0.062,0.0739,0.0766,0.0795,0.0884,0.0906,0.0926,0.1024,0.104,0.1053,0.1064,0.1079,0.1091,0.0948,0.0949,0.0949,0,0.0223,0.0253,0.0254,0.0296,0.0342,0.0368,0.0433,0.0471,0.0551,0.0592,0.0614,0.0748,0.0784,0.0865,0.0914,0.0912,0.0929,0.0977,0.1053,0.1064,0.1075,0.1087,0.1099,0.0953,0.0953,0.0952,0.0952,0,0.0265,0.0306,0.0328,0.0395,0.0445,0.0503,0.0562,0.0625,0.0693,0.0738,0.0847,0.088,0.0967,0.099,0.1002,0.1099,0.109,0.1046,0.1023,0.1095,0.1104,0.1115,0.096,0.0958,0.0957,0.0956,0,0,0.0273,0.0345,0.0359,0.0413,0.051,0.0557,0.0657,0.0747,0.0807,0.0908,0.0993,0.1094,0.112,0.1153,0.1158,0.1195,0.1282,0.119,0.1189,0.1206,0.1343,0.1205,0.1203,0.1265,0.1268,0.127,0.1319,0,0.032,0.0407,0.0445,0.0567,0.0627,0.0693,0.0772,0.0859,0.0941,0.1026,0.1071,0.1163,0.1177,0.1234,0.1276,0.1271,0.1318,0.1274,0.1271,0.1272,0.114,0.1213,0.1278,0.1327,0.133,0.1331,0.1333,0,0.036,0.0415,0.053,0.0646,0.068,0.076,0.0898,0.0977,0.1071,0.1139,0.1237,0.1274,0.137,0.135,0.1423,0.1406,0.1415,0.1398,0.1398,0.1253,0.1154,0.1241,0.1352,0.1351,0.1349,0.1348,0.1347,0,0.0359,0.0483,0.058,0.0626,0.0754,0.0823,0.0904,0.1013,0.1078,0.1218,0.1284,0.1384,0.1452,0.1479,0.1475,0.1488,0.1499,0.1488,0.1365,0.1354,0.1424,0.1412,0.1542,0.1542,0.1542,0.1542,0.1542,0,0.039,0.0464,0.0585,0.0633,0.0733,0.0843,0.0947,0.1032,0.115,0.1203,0.1347,0.1373,0.15,0.1509,0.1501,0.1452,0.1523,0.1408,0.1366,0.1458,0.1448,0.1432,0.1418,0.1543,0.1543,0.1543,0.1542,0,0.0369,0.0444,0.0546,0.0688,0.0727,0.0806,0.0941,0.0991,0.1145,0.1217,0.1278,0.1417,0.1437,0.1475,0.1496,0.1475,0.1424,0.1377,0.1472,0.1429,0.1283,0.1273,0.1317,0.1313,0.1309,0.1306,0.1304,0,0.0366,0.0417,0.0558,0.0581,0.0643,0.0754,0.0789,0.0959,0.0998,0.1174,0.1167,0.1287,0.1338,0.1268,0.1319,0.1308,0.1281,0.131,0.1339,0.1309,0.1265,0.1261,0.1256,0.1298,0.1297,0.1296,0.1295,0,0.0346,0.0398,0.0469,0.0508,0.0557,0.0615,0.0686,0.0718,0.0882,0.1029,0.1064,0.1128,0.1136,0.1168,0.1173,0.1141,0.1331,0.1273,0.1283,0.1311,0.1286,0.1244,0.1244,0.1283,0.1285,0.1286,0.1286,0,0.0326,0.0335,0.0392,0.0433,0.0465,0.0459,0.0525,0.057,0.0656,0.0867,0.0834,0.0941,0.1061,0.1071,0.1022,0.1036,0.1067,0.1101,0.1121,0.1135,0.1054,0.0995,0.0888,0,0,0,0,0,0.0302,0.0276,0.0291,0.0326,0.0355,0.0373,0.0431,0.0499,0.0644,0.0638,0.0764,0.0751,0.0823,0.0859,0.0842,0.0938,0.1048,0.092,0.109,0.1213,0.1228,0.1149,0,0,0,0,0,0,0.0259,0.027,0.026,0.0226,0.0229,0.0246,0.0279,0.0378,0.038,0.0543,0.0548,0.0727,0.075,0.081,0.083,0.0849,0.0951,0.0999,0.0999,0.1205,0.1218,0.123,0.1154,0,0,0,0,0]},{"header":{"parameterUnit":"m.s-1","parameterCategory":2,"la1":30.2991,"la2":30.254,"lo1":-89.0895,"lo2":-89.0444,"dy":0.0017,"dx":0.0017,"nx":28,"ny":28,"refTime":"2023-04-26T15:00:00:Z","depth":"4","parameterNumber":3,"parameterNumberName":"V-component_of_CURRENTS"},"data":[0,0,0,0,0,0,0,0,0,0,0,0,0,0,0,0,0,0,0,0,0,0,0,0,0,0,0,0,0,0,0,0,0,0,0,0,0,0,0,0,0,0,0,0,0,0,0,0,0,0,0,0,0,0,0,0,0,0,0.0455,0.0456,0,0.0446,0.0445,0.0444,0.0468,0.0469,0.047,0.0472,0.0499,0.0498,0.0498,0,0,0,0,0,0,0,0,0,0,0,0,0,0.0409,0.041,0.0455,0.0456,0.0456,0.0446,0.0445,0.0444,0.0467,0.0469,0.0471,0.0472,0.0499,0.0498,0.0498,0,0,0,0,0,0,0,0,0,0,0,0,0,0.0411,0.041,0.0455,0.0472,0.0473,0.0446,0.0445,0.0444,0.0467,0.0469,0.0471,0.0473,0.0499,0.0499,0.0498,0.0452,0,0,0.0495,0.0495,0,0,0,0,0,0,0,0,0.0411,0.0412,0.0469,0.047,0.0473,0.0466,0.0439,0.0451,0.0467,0.0462,0.0472,0.0474,0.0494,0.0494,0.0477,0.0453,0.0454,0.0495,0.0495,0.0494,0.0494,0,0,0,0,0,0,0,0.0411,0.0412,0.0444,0.0469,0.0472,0.0451,0.0454,0.044,0.0462,0.0463,0.0466,0.0475,0.0495,0.0478,0.0478,0.0455,0.0495,0.0494,0.0494,0.0494,0.0473,0.0473,0,0,0,0,0,0,0.0428,0.0412,0.0445,0.0445,0.0454,0.0451,0.0454,0.046,0.0462,0.0466,0.0474,0.0477,0.0478,0.0479,0.048,0.0535,0.0494,0.0494,0.0493,0.0473,0.0473,0.0473,0,0,0,0,0,0,0.0427,0.0431,0.0445,0.0434,0.0435,0.0451,0.0458,0.0459,0.0501,0.0471,0.0474,0.0522,0.048,0.0481,0.0499,0.0533,0.0493,0.0492,0.0473,0.0473,0.0473,0.0576,0,0,0,0,0,0,0.0426,0.043,0.046,0.0435,0.0437,0.0469,0.0457,0.0458,0.0504,0.0509,0.0512,0.0513,0.0482,0.05,0.0498,0.0531,0.0492,0.0473,0.0473,0.0473,0.0573,0.058,0.0585,0,0,0,0,0,0.0424,0.0449,0.0461,0.0467,0.0471,0.0471,0.047,0.0482,0.0505,0.0527,0.0521,0.0516,0.0498,0.0499,0.0497,0.0531,0.0473,0.0473,0.0473,0.057,0.0578,0.0585,0,0,0,0,0,0,0.0453,0.0454,0.0467,0.0496,0.0506,0.0479,0.0504,0.0516,0.0527,0.0557,0.0519,0.0518,0.0542,0.0515,0.0518,0.0518,0.0483,0.0483,0.0558,0.0565,0.0571,0.0581,0.0491,0,0,0,0,0,0.0472,0.049,0.049,0.052,0.0529,0.0529,0.0542,0.0564,0.0561,0.0572,0.0575,0.0562,0.0525,0.0535,0.0509,0.052,0.0462,0.0535,0.0541,0.0547,0.0549,0.0455,0.0454,0.0473,0.0473,0.0473,0,0,0.0493,0.0497,0.0511,0.0528,0.0534,0.0561,0.0542,0.059,0.0618,0.0572,0.0625,0.0595,0.0531,0.0532,0.0541,0.0528,0.0516,0.0547,0.0553,0.0551,0.0455,0.0453,0.0451,0.0473,0.0473,0.0473,0,0,0.0528,0.0549,0.0575,0.0589,0.0628,0.0628,0.066,0.068,0.0695,0.0737,0.0686,0.0669,0.0673,0.0599,0.0563,0.0586,0.0548,0.0604,0.0656,0.0565,0.0563,0.056,0.0511,0.0503,0.0613,0.0613,0.0613,0,0.0561,0.0592,0.0586,0.0616,0.0653,0.0668,0.0725,0.0718,0.0752,0.0751,0.0785,0.0719,0.0686,0.0606,0.0622,0.0601,0.0567,0.0639,0.0575,0.057,0.0566,0.0516,0.0505,0.0618,0.0618,0.0617,0.0617,0,0.0608,0.0649,0.0667,0.071,0.0748,0.0801,0.0812,0.0843,0.0888,0.088,0.0867,0.0802,0.0762,0.0741,0.0702,0.0643,0.0637,0.0591,0.0562,0.057,0.0517,0.0505,0.0625,0.0623,0.0622,0.0621,0,0,0.0635,0.069,0.0705,0.0762,0.0819,0.0865,0.0891,0.091,0.0927,0.0945,0.0937,0.0871,0.0857,0.081,0.0743,0.0669,0.0621,0.0649,0.0642,0.0613,0.0466,0.0436,0.0419,0.058,0.0578,0.0576,0.0453,0,0.0683,0.0767,0.0788,0.0903,0.0955,0.0978,0.0994,0.1018,0.1027,0.1015,0.092,0.091,0.0872,0.0877,0.079,0.0646,0.059,0.0661,0.0451,0.0445,0.0425,0.0402,0.0569,0.0443,0.044,0.0438,0.0437,0,0.0735,0.0781,0.0915,0.1003,0.1032,0.1141,0.1203,0.1211,0.1144,0.1138,0.1087,0.1018,0.0904,0.0887,0.0662,0.0722,0.0627,0.0517,0.0509,0.0432,0.0389,0.0421,0.0413,0.0415,0.0416,0.0418,0.042,0,0.0779,0.0882,0.1015,0.1054,0.1143,0.1251,0.1315,0.1302,0.1288,0.1246,0.1226,0.1083,0.1029,0.0861,0.0652,0.0679,0.039,0.0384,0.0261,0.0259,0.0281,0.0284,0.0244,0.0244,0.0244,0.0244,0.0245,0,0.0813,0.0889,0.1093,0.116,0.1341,0.1383,0.1516,0.1521,0.1478,0.1404,0.1336,0.1205,0.1028,0.0824,0.0654,0.0405,0.0392,0.0264,0.0212,0.0332,0.0342,0.0274,0.0279,0.024,0.0241,0.0242,0.0243,0,0.0803,0.0904,0.1066,0.1274,0.1386,0.1532,0.1689,0.1681,0.1671,0.1565,0.1553,0.1325,0.105,0.0832,0.0526,0.0417,0.0172,0.0095,0.0253,0.0214,0.0118,0.0129,-0.0027,-0.003,-0.0032,-0.0034,-0.0035,0,0.0811,0.0895,0.1216,0.1357,0.1501,0.171,0.1788,0.1817,0.1708,0.1553,0.1405,0.1225,0.103,0.0583,0.0378,0.0087,0.005,-0.0002,0.0059,0.0117,0.0083,0.0099,0.0113,-0.0038,-0.0039,-0.0039,-0.004,0,0.0782,0.0926,0.1051,0.1357,0.1567,0.168,0.176,0.1711,0.1581,0.1612,0.1272,0.1095,0.078,0.0491,0.0305,0.0069,0.0066,-0.0023,-0.0019,0.0038,0.0102,0.0074,0.009,-0.0047,-0.0046,-0.0045,-0.0045,0,0.0788,0.085,0.1043,0.132,0.1501,0.1526,0.1631,0.1486,0.1417,0.1229,0.1104,0.0864,0.0758,0.0471,0.0225,0.007,0.0051,0.0056,0.0056,0.0062,0.013,0.0227,0.0062,0,0,0,0,0,0.0776,0.0787,0.0982,0.1194,0.1348,0.1459,0.1472,0.1481,0.1399,0.1162,0.1137,0.0832,0.0552,0.0388,0.0219,0.0178,0.0015,-0.0019,0.0019,-0.0086,-0.0078,-0.0016,0,0,0,0,0,0,0.0715,0.0823,0.0894,0.0997,0.114,0.1212,0.1232,0.1226,0.1023,0.1001,0.0807,0.0844,0.0512,0.066,0.0234,0.0187,0.02,-0.0127,-0.0129,-0.0091,-0.0083,-0.0077,-0.001,0,0,0,0,0]}]]